Torna al catalogo

NAVSTAR 67

USA 239

AttivoNavigazioneHEO
NORAD 38833·PAYLOAD·🇺🇸 United States

Lanciato Oct 4, 2012 da Cape Canaveral Space Force Station

Loading…

Prossimi Passaggi (prossime 24 ore)

TLE

AggiornatoSource: CelesTrak SupGP

Epoca: Sep 17, 2026, 16:38 UTC

1 38833C 12053A   26260.69312500  .00000000  00000+0  00000+0 0  2607
2 38833  53.5981 139.8074 0185865  67.4804  35.8282  2.00557287    17

Traccia NAVSTAR 67 in tempo reale con AllMySat

Download on the App Store